TA3ONK-13 Weather Reports


time (UTC)temp
C
wind
direction
speed
KPH
gust
KPH
rain 1hr
cm
rain 24hr
cm
rain mn
cm
humidity
%
barometer
mb
20260906080003 45 0 0.0 0.0 0.00 0.00 0.00 24 1018.3
20260906074503 36 0 0.0 0.0 0.00 0.00 0.00 32 1018.2
20260906073003 31 0 0.0 0.0 0.00 0.00 0.00 39 1017.9
20260906071503 30 0 0.0 0.0 0.00 0.00 0.00 39 1017.7
20260906070002 30 0 0.0 0.0 0.00 0.00 0.00 41 1017.7
20260906064503 30 0 0.0 0.0 0.00 0.00 0.00 42 1017.6
20260906063003 29 0 0.0 0.0 0.00 0.00 0.00 37 1017.5
20260906061503 28 0 0.0 0.0 0.00 0.00 0.00 37 1017.4
20260906060004 28 0 0.0 0.0 0.00 0.00 0.00 34 1017.2
20260906054503 28 0 0.0 0.0 0.00 0.00 0.00 34 1017.1
20260906053002 27 0 0.0 0.0 0.00 0.00 0.00 35 1017.0
20260906051502 27 0 0.0 0.0 0.00 0.00 0.00 35 1017.0
20260906050002 26 0 0.0 0.0 0.00 0.00 0.00 35 1016.9
20260906044503 26 0 0.0 0.0 0.00 0.00 0.00 35 1016.9
20260906043004 26 0 0.0 0.0 0.00 0.00 0.00 36 1016.7
20260906041503 26 0 0.0 0.0 0.00 0.00 0.00 36 1016.5
20260906040003 26 0 0.0 0.0 0.00 0.00 0.00 36 1016.6
20260906034503 26 0 0.0 0.0 0.00 0.00 0.00 36 1016.5
20260906033003 26 0 0.0 0.0 0.00 0.00 0.00 36 1016.5
20260906031505 26 0 0.0 0.0 0.00 0.00 0.00 36 1016.4
20260906030003 26 0 0.0 0.0 0.00 0.00 0.00 36 1016.3
20260906024502 26 0 0.0 0.0 0.00 0.00 0.00 37 1016.2
20260906023003 26 0 0.0 0.0 0.00 0.00 0.00 36 1016.2
20260906021503 26 0 0.0 0.0 0.00 0.00 0.00 37 1016.1
20260906020004 26 0 0.0 0.0 0.00 0.00 0.00 37 1016.2
20260906014502 26 0 0.0 0.0 0.00 0.00 0.00 37 1016.1
20260906013003 27 0 0.0 0.0 0.00 0.00 0.00 36 1016.1
20260906011502 27 0 0.0 0.0 0.00 0.00 0.00 35 1016.4
20260906010003 27 0 0.0 0.0 0.00 0.00 0.00 35 1016.5
20260906004503 27 0 0.0 0.0 0.00 0.00 0.00 35 1016.3
20260906003003 27 0 0.0 0.0 0.00 0.00 0.00 36 1016.1
20260906001502 27 0 0.0 0.0 0.00 0.00 0.00 36 1016.2
20260906000005 27 0 0.0 0.0 0.00 0.00 0.00 37 1016.0
20260905234503 27 0 0.0 0.0 0.00 0.00 0.00 36 1016.0
20260905233002 27 0 0.0 0.0 0.00 0.00 0.00 36 1016.2
20260905231503 27 0 0.0 0.0 0.00 0.00 0.00 36 1016.3
20260905230002 27 0 0.0 0.0 0.00 0.00 0.00 38 1016.2
20260905224507 27 0 0.0 0.0 0.00 0.00 0.00 37 1016.4
20260905223002 28 0 0.0 0.0 0.00 0.00 0.00 37 1016.4
20260905221503 28 0 0.0 0.0 0.00 0.00 0.00 38 1016.5
20260905220002 28 0 0.0 0.0 0.00 0.00 0.00 40 1016.6
20260905214502 28 0 0.0 0.0 0.00 0.00 0.00 40 1016.6
20260905213003 28 0 0.0 0.0 0.00 0.00 0.00 41 1016.5
20260905211503 29 0 0.0 0.0 0.00 0.00 0.00 43 1016.6
20260905210003 29 0 0.0 0.0 0.00 0.00 0.00 44 1016.7
20260905204503 28 0 0.0 0.0 0.00 0.00 0.00 45 1016.7
20260905203004 29 0 0.0 0.0 0.00 0.00 0.00 45 1016.7
20260905201502 30 0 0.0 0.0 0.00 0.00 0.00 43 1016.8
20260905200004 30 0 0.0 0.0 0.00 0.00 0.00 41 1016.8
20260905194503 30 0 0.0 0.0 0.00 0.00 0.00 43 1016.8
20260905193003 30 0 0.0 0.0 0.00 0.00 0.00 43 1016.7
20260905191503 31 0 0.0 0.0 0.00 0.00 0.00 43 1016.8
20260905190005 31 0 0.0 0.0 0.00 0.00 0.00 43 1016.7
20260905184502 31 0 0.0 0.0 0.00 0.00 0.00 40 1016.7
20260905183002 31 0 0.0 0.0 0.00 0.00 0.00 40 1016.7
20260905181502 31 0 0.0 0.0 0.00 0.00 0.00 39 1016.6
20260905180004 31 0 0.0 0.0 0.00 0.00 0.00 39 1016.5
20260905174502 32 0 0.0 0.0 0.00 0.00 0.00 38 1016.3
20260905173006 32 0 0.0 0.0 0.00 0.00 0.00 37 1016.0
20260905171503 32 0 0.0 0.0 0.00 0.00 0.00 39 1015.8
20260905170004 33 0 0.0 0.0 0.00 0.00 0.00 38 1015.7
20260905164503 33 0 0.0 0.0 0.00 0.00 0.00 37 1015.6
20260905163003 33 0 0.0 0.0 0.00 0.00 0.00 33 1015.5
20260905161503 33 0 0.0 0.0 0.00 0.00 0.00 32 1015.4
20260905160004 33 0 0.0 0.0 0.00 0.00 0.00 33 1015.4
20260905154503 35 0 0.0 0.0 0.00 0.00 0.00 30 1015.4
20260905153004 35 0 0.0 0.0 0.00 0.00 0.00 27 1015.4
20260905151502 36 0 0.0 0.0 0.00 0.00 0.00 25 1015.5
20260905150005 36 0 0.0 0.0 0.00 0.00 0.00 23 1015.5
20260905144502 37 0 0.0 0.0 0.00 0.00 0.00 22 1015.6
20260905143003 37 0 0.0 0.0 0.00 0.00 0.00 22 1015.7
20260905141503 38 0 0.0 0.0 0.00 0.00 0.00 22 1015.7
20260905140003 38 0 0.0 0.0 0.00 0.00 0.00 22 1015.8
20260905134503 38 0 0.0 0.0 0.00 0.00 0.00 21 1015.9
20260905133004 38 0 0.0 0.0 0.00 0.00 0.00 21 1016.0
20260905131502 38 0 0.0 0.0 0.00 0.00 0.00 21 1016.0
20260905130004 38 0 0.0 0.0 0.00 0.00 0.00 22 1016.1
20260905124503 37 0 0.0 0.0 0.00 0.00 0.00 23 1016.1
20260905123004 36 0 0.0 0.0 0.00 0.00 0.00 24 1016.3
20260905121502 36 0 0.0 0.0 0.00 0.00 0.00 24 1016.3
20260905120002 36 0 0.0 0.0 0.00 0.00 0.00 24 1016.5
20260905114503 35 0 0.0 0.0 0.00 0.00 0.00 23 1016.6
20260905113002 36 0 0.0 0.0 0.00 0.00 0.00 26 1016.7
20260905111503 35 0 0.0 0.0 0.00 0.00 0.00 25 1016.9
20260905110004 35 0 0.0 0.0 0.00 0.00 0.00 25 1017.0
20260905104503 34 0 0.0 0.0 0.00 0.00 0.00 26 1016.9
20260905103003 34 0 0.0 0.0 0.00 0.00 0.00 28 1017.0
20260905101503 33 0 0.0 0.0 0.00 0.00 0.00 30 1017.1
20260905100002 33 0 0.0 0.0 0.00 0.00 0.00 28 1017.1
20260905094503 34 0 0.0 0.0 0.00 0.00 0.00 28 1017.2
20260905093002 36 0 0.0 0.0 0.00 0.00 0.00 30 1017.3
20260905091502 42 0 0.0 0.0 0.00 0.00 0.00 24 1017.1
20260905090003 42 0 0.0 0.0 0.00 0.00 0.00 22 1016.8
20260905084503 43 0 0.0 0.0 0.00 0.00 0.00 22 1016.3
20260905083002 43 0 0.0 0.0 0.00 0.00 0.00 23 1017.7
20260905081504 43 0 0.0 0.0 0.00 0.00 0.00 24 1017.3